Regional Weather Roundup
Issued by NWS

Home | Current Version | Previous Version | Graphics & Text | Print | Product List | Glossary On
Versions: 1 2 3 4 5 6 7 8 9 10 11 12 13 14 15 16 17 18 19 20 21 22 23 24 25 26 27 28 29 30 31 32 33 34 35 36 37 38 39 40 41 42 43 44 45 46 47 48 49 50
000
ASUS43 KMPX 310410
RWRMN
WEATHER ROUNDUP FOR MINNESOTA
NATIONAL WEATHER SERVICE TWIN CITIES/CHANHASSEN MN
1100 PM CDT SAT JUL 30 2016


NOTE: "FAIR" INDICATES FEW OR NO CLOUDS BELOW 12,000 FEET WITH NO
SIGNIFICANT WEATHER AND/OR OBSTRUCTIONS TO VISIBILITY. N/A MEANS
CURRENT SKY AND/OR WEATHER CONDITIONS ARE NOT AVAILABLE.

MNZ060>063-068>070-310500-
   Twin Cities Metro

CITY           SKY/WX    TMP DP  RH WIND       PRES   REMARKS
TWIN CITIES    PTCLDY    72  65  78 SE6       29.99S
ST PAUL        CLEAR     70  64  81 CALM      29.99S
CRYSTAL        CLEAR     69  61  75 E5        29.98S
BLAINE         CLEAR     72  63  73 SE3       29.99S
LAKEVILLE      PTCLDY    64  64 100 CALM      30.00S
EDEN PRAIRIE   CLEAR     72  65  78 SE5       29.98S
LAKEVILLE      PTCLDY    64  64 100 CALM      30.00S
SOUTH ST PAUL  CLEAR     71  64  78 CALM      29.99S
LAKE ELMO      FAIR      64  63  94 CALM      30.01S
$$
MNZ001>005-007-008-013>017-022>024-027-028-310500-
   Northwest Minnesota

CITY           SKY/WX    TMP DP  RH WIND       PRES   REMARKS
BEMIDJI        CLEAR     64  57  78 SE7       29.97F
HALLOCK        CLEAR     66  64  94 SE7       29.88S
ROSEAU         CLEAR     68  63  83 S7        29.92F
WARROAD        CLEAR     70  64  83 S6        29.94S
THIEF RVR FALL PTCLDY    67  62  84 SE7       29.94S
CROOKSTON      CLEAR     66  61  82 SE8       29.92S
FOSSTON        CLEAR     64  57  77 SE7       29.96S
DETROIT LAKES  CLEAR     68  59  73 SE6       29.98S
MOORHEAD       CLEAR     66  61  82 SE6       29.93S
PARK RAPIDS    CLEAR     70  59  68 SE6       29.98S
MAHNOMEN       FAIR      64  59  84 SE6       29.95S
$$
MNZ006-009>011-018-025>026-310500-
   North Central Minnesota

CITY           SKY/WX    TMP DP  RH WIND       PRES   REMARKS
BAUDETTE       CLEAR     64  59  83 SE7       29.96S
FLAG ISLAND    CLEAR     73  66  78 S10G16    29.93S
INTL FALLS     CLEAR     62  59  90 SE5       29.98F
WASKISH        CLEAR     63  61  94 SE3       29.98S
BIG FORK         N/A     61  57  88 CALM      30.00S FOG
LONGVILLE      CLEAR     61  59  94 SE3       29.99S
GRAND RAPIDS   CLEAR     64  61  90 S5        30.03S
CRANE LAKE     CLEAR     55  54  94 S1        30.02S
ORR            CLEAR     61  57  88 CALM      29.99S
COOK           CLEAR     59  57  94 CALM      30.02S
WALKER         FAIR      64  57  79 CALM      29.99R
$$
MNZ012-019>021-037-310500-
   Northeast Minnesota

CITY           SKY/WX    TMP DP  RH WIND       PRES   REMARKS
DULUTH         PTCLDY    62  60  93 E8        30.04R
ELY            CLEAR     63  57  82 SE3       30.04S
HIBBING        CLEAR     56  55  97 CALM      30.02S
EVELETH        CLEAR     60  58  92 CALM      30.04S
DULUTH HARBOR  CLOUDY    66  63  88 NE9       30.03S
TWO HARBORS    CLEAR     63  57  82 N5        30.02S
SILVER BAY     CLEAR     61  57  88 CALM      30.03S
GRAND MARAIS     N/A     64  56  75 VRB5      30.04S
G MARAIS ARPRT CLEAR     55  52  88 N3        30.09R
$$
MNZ029>031-032-039>041-046>048-054>057-064-310500-
   West Central Minnesota

CITY           SKY/WX    TMP DP  RH WIND       PRES   REMARKS
FERGUS FALLS   CLEAR     66  59  77 SE6       29.97S
WHEATON        CLEAR     63  61  94 SE6       29.96S
MORRIS         CLEAR     63  59  88 E7        29.96S
ALEXANDRIA     CLEAR     66  58  75 SE5       30.00R
ELBOW LAKE     FAIR      66  59  77 SE6       29.97S
WADENA         CLEAR     63  57  82 CALM      29.98S
GLENWOOD       CLEAR     63  57  82 E5        29.99S
APPLETON       CLEAR     66  57  72 SE6       29.95S
BENSON         CLEAR     66  57  72 S5        29.96F
ORTONVILLE     CLEAR     66  57  72 CALM      29.95S
MADISON        CLEAR     64  57  77 SE6       29.95F
WILLMAR        FAIR      64  61  88 E3        29.99S
$$
MNZ033>034-036-042>043-049>051-058-059-310500-
   Central Minnesota

CITY           SKY/WX    TMP DP  RH WIND       PRES   REMARKS
ST CLOUD       PTCLDY    68  64  87 SE3       29.99R
SAUK CENTRE    FAIR      62  59  90 CALM      29.99S
PAYNESVILLE    CLEAR     63  63 100 CALM      29.99S
AITKIN         CLEAR     64  59  82 CALM      29.99S
PINE RIVER     CLEAR     64  61  88 CALM      30.02S
BRAINERD       CLEAR     67  63  87 SE6       29.99S
STAPLES        CLEAR     66  61  82 SE3       29.99R
LONG PRAIRIE   FAIR      63  59  88 CALM      30.00S
LITTLE FALLS   MOCLDY    66  61  82 SE5       29.99S
LITCHFIELD     CLEAR     66  64  94 CALM      29.99S
BUFFALO        CLEAR     68  63  84 CALM      30.00S
MAPLE LAKE     CLEAR     69  67  91 CALM      30.00S
HUTCHINSON     CLEAR     67  64  90 CALM      30.00S
$$
MNZ037-044-045-052-053-310500-
   East Central Minnesota

CITY           SKY/WX    TMP DP  RH WIND       PRES   REMARKS
PRINCETON      PTCLDY    68  63  83 E3        29.99S
MORA           CLEAR     64  63  94 CALM      30.02S
CAMBRIDGE      CLEAR     68  59  73 CALM      29.98S
RUSH CITY      RAIN      64  63  95 CALM      30.00S
MOOSE LAKE     CLEAR     63  59  88 CALM      30.00S
HINCKLEY       FAIR      61  61 100 CALM      30.01R
CLOQUET        CLEAR     61  55  82 E3        30.03S
MCGREGOR       CLEAR     63  61  94 E5        30.02R
$$
MNZ071>073-080-081-089-090-097-098-310500-
   Southwest Minnesota

CITY           SKY/WX    TMP DP  RH WIND       PRES   REMARKS
MONTEVIDEO     CLEAR     64  57  77 S5        29.98S
GRANITE FALLS  CLEAR     69  59  70 E5        29.98S
CANBY          CLOUDY    65  61  86 SE5       29.97S
MARSHALL       CLEAR     67  61  81 SE6       29.97S
REDWOOD FALLS  CLEAR     66  59  78 SE5       29.97R
OLIVIA         CLEAR     68  59  73 SE5       29.98R
PIPESTONE      CLOUDY    66  59  77 SE5       29.99S
WINDOM         CLEAR     68  63  83 SE3       30.00R
WORTHINGTON    CLEAR     65  61  87 SE7       30.00R
JACKSON        CLEAR     70  61  73 SE6       30.01R
TRACY          PTCLDY    69  62  78 S6        29.99S
SLAYTON        CLEAR     64  59  86 SE3       30.01S
$$
MNZ065>067-074>077-082>085-091>093-310500-
   South Central Minnesota

CITY           SKY/WX    TMP DP  RH WIND       PRES   REMARKS
MANKATO        CLEAR     70  63  78 SE6       29.99S
NEW ULM        CLEAR     70  64  83 SE5       29.99R
ST JAMES       CLEAR     63  61  94 SE5       30.00S
FAIRMONT       CLEAR     66  61  82 SE6       29.99S
GLENCOE        CLEAR     70  66  88 CALM      29.98S
FARIBAULT      MOCLDY    70  63  78 SE5       30.01S
OWATONNA       CLEAR     66  61  82 SE5       30.01S
WASECA         CLEAR     64  61  88 SE6       30.02R
ALBERT LEA     CLEAR     66  64  94 SE5       30.01
$$
MNZ078>079-086>088-094>096-310500-
   Southeast Minnesota

CITY           SKY/WX    TMP DP  RH WIND       PRES   REMARKS
ROCHESTER      PTCLDY    67  66  97 S5        30.03R
RED WING       CLEAR     66  64  94 CALM      29.99S
STANTON        MOCLDY    66  63  88 CALM      29.99S
DODGE CENTER   CLOUDY    64  63  94 SE6       30.02S
WINONA         PTCLDY    70  63  78 SE3       30.01S
AUSTIN         CLEAR     64  63  94 CALM      30.01S
PRESTON        CLOUDY    68  62  79 SE5       30.03S
$$
ABBREVIATIONS USED IN REMARKS
   TC - TEMPERATURES IN CELSIUS
  WCI - WIND CHILL INDEX
   HX - HEAT INDEX
  VSB - VISIBILITY
$$



USA.gov is the U.S. government's official web portal to all federal, state and local government web resources and services.